Regional Weather Roundup
Issued by NWS

Home | Current Version | Previous Version | Graphics & Text | Print | Product List | Glossary On
Versions: 1 2 3 4 5 6 7 8 9 10 11 12 13 14 15 16 17 18 19 20 21 22 23 24 25 26 27 28 29 30 31 32 33 34 35 36 37 38 39 40 41 42 43 44 45 46 47 48 49 50
629
ASUS43 KBIS 110510
RWRND

NORTH DAKOTA REGIONAL WEATHER ROUNDUP
NATIONAL WEATHER SERVICE BISMARCK ND
1100 PM CST SUN DEC 10 2017

NOTE: "FAIR" INDICATES FEW OR NO CLOUDS BELOW 12,000 FEET WITH NO
SIGNIFICANT WEATHER AND/OR OBSTRUCTIONS TO VISIBILITY.


NDZ001>003-009>011-017-110600-
NORTHWEST NORTH DAKOTA

CITY           SKY/WX    TMP DP  RH WIND       PRES   REMARKS
WILLISTON      CLEAR     42  26  53 NW25G36   29.97S
MINOT          CLEAR     43  25  49 W21G30    29.80F
MINOT AFB      PTCLDY    43  26  50 NW30G38   29.77F
$$

NDZ018>021-031>035-040>046-110600-
SOUTHWEST NORTH DAKOTA

CITY           SKY/WX    TMP DP  RH WIND       PRES   REMARKS
BISMARCK       CLOUDY    44  24  45 NW13      29.94R
DICKINSON      CLEAR     38  17  42 W18       29.98R
GARRISON         N/A     39  20  46 W21G28    29.87F
HETTINGER ARPT CLEAR     34  16  47 W16       30.03R
$$

NDZ004>008-012>016-024-026-027-054-110600-
NORTHEAST NORTH DAKOTA

CITY           SKY/WX    TMP DP  RH WIND       PRES   REMARKS
GRAND FORKS    CLOUDY    28  27  96 S12       29.76F WCI  18
GRND FRKS AFB  CLOUDY    29  27  93 S7        29.75F
DEVILS LAKE    MOCLDY    37  29  72 W22       29.75F
$$

NDZ022-023-025-028>030-036>039-047>053-110600-
SOUTHEAST NORTH DAKOTA

CITY           SKY/WX    TMP DP  RH WIND       PRES   REMARKS
FARGO          CLOUDY    30  27  88 S9        29.83F
JAMESTOWN      CLOUDY    40  29  64 W16       29.81F
$$





USA.gov is the U.S. government's official web portal to all federal, state and local government web resources and services.